EST,Max TemperatureF,Mean TemperatureF,Min TemperatureF,Max Dew PointF,MeanDew PointF,Min DewpointF,Max Humidity, Mean Humidity, Min Humidity, Max Sea Level PressureIn, Mean Sea Level PressureIn, Min Sea Level PressureIn, Max VisibilityMiles, Mean VisibilityMiles, Min VisibilityMiles, Max Wind SpeedMPH, Mean Wind SpeedMPH, Max Gust SpeedMPH,PrecipitationIn, CloudCover, Events, WindDirDegrees
2012-12-1,69,55,41,52,46,41,100,80,43,30.44,30.37,30.34,10,10,4,7,3,,0.00,2,,162
2012-12-2,71,58,46,54,51,46,100,84,53,30.43,30.36,30.30,10,10,5,9,2,,0.00,3,,224
2012-12-3,73,58,44,63,51,45,100,84,44,30.37,30.31,30.27,10,7,0,10,4,,0.00,3,Fog,204
2012-12-4,73,63,53,59,55,52,100,83,47,30.38,30.30,30.24,10,10,10,10,4,17,0.00,5,,200
2012-12-5,71,63,55,59,55,43,100,79,55,30.24,30.19,30.14,10,10,10,15,6,23,0.00,5,Rain,228
2012-12-6,59,52,46,46,40,34,72,63,47,30.28,30.23,30.19,10,10,10,14,8,17,0.00,8,,38
2012-12-7,57,52,46,50,42,36,100,74,62,30.21,30.12,30.04,10,9,0,9,5,,0.00,7,Fog-Rain,28
2012-12-8,69,56,42,57,50,43,100,87,56,30.11,30.07,30.03,10,6,0,9,2,,0.00,6,Fog,223
2012-12-9,71,62,53,63,58,54,100,92,69,30.16,30.09,30.02,10,7,0,9,3,,0.00,5,Fog,191
2012-12-10,69,61,53,63,59,54,100,93,68,30.02,29.86,29.78,10,8,0,15,6,23,0.15,6,Fog-Rain,216
2012-12-11,60,55,48,61,53,43,100,90,63,30.14,29.92,29.79,10,10,10,8,6,,0.04,5,,253
2012-12-12,48,44,41,45,40,34,100,88,62,30.34,30.25,30.15,10,9,5,17,10,29,0.26,6,Rain,34
2012-12-13,53,44,35,41,36,32,100,78,50,30.41,30.35,30.27,10,10,10,16,9,20,0.13,5,Rain,28
2012-12-14,57,44,30,36,32,28,100,78,38,30.43,30.34,30.26,10,10,10,7,3,,0.00,0,,21
2012-12-15,60,48,35,48,35,30,100,69,34,30.29,30.21,30.11,10,10,10,6,1,,0.00,3,,119
2012-12-16,57,54,51,57,54,52,100,100,100,30.11,30.03,29.93,10,3,0,9,2,18,0.09,8,Fog-Rain,259
2012-12-17,59,56,53,59,56,54,100,100,100,29.95,29.84,29.71,10,8,2,15,5,22,0.36,7,Rain,210
2012-12-18,60,50,41,55,44,34,100,75,36,30.01,29.87,29.75,10,10,3,15,8,25,0.00,2,,243
2012-12-19,69,53,37,45,39,34,100,68,37,30.14,30.07,30.01,10,10,10,12,6,16,0.01,0,,228
2012-12-20,60,50,41,61,44,32,100,84,48,30.14,29.91,29.63,10,9,4,28,6,46,0.00,4,Rain,167
2012-12-21,46,42,35,32,26,21,70,54,40,30.00,29.87,29.78,10,10,10,28,18,40,0.00,0,,262
2012-12-22,55,42,30,27,21,19,70,47,25,30.18,30.12,30.00,10,10,10,13,8,18,0.59,0,,241
2012-12-23,59,44,28,34,28,23,93,58,31,30.20,30.14,30.08,10,10,10,14,5,17,0.00,1,,223
2012-12-24,50,47,44,50,42,32,100,82,50,30.10,30.00,29.92,10,8,0,8,5,,0.23,7,Fog-Rain,204
2012-12-25,51,50,50,52,51,50,100,100,100,30.11,30.03,29.93,10,6,1,12,5,16,0.13,7,Rain,77
2012-12-26,62,50,37,61,45,32,100,80,58,29.93,29.69,29.54,10,9,3,28,13,41,0.92,5,Rain-Thunderstorm,211
2012-12-27,53,42,32,36,33,32,100,76,44,30.10,29.98,29.83,10,10,10,14,8,21,0.00,0,,266
2012-12-28,44,38,32,36,33,30,100,81,66,30.18,30.10,29.98,10,10,10,10,4,,0.00,3,,47
2012-12-29,53,45,37,45,38,30,100,83,58,30.11,29.90,29.78,10,8,2,22,8,28,0.18,6,Rain,278
2012-12-30,50,40,30,30,27,23,93,67,35,30.44,30.36,30.11,10,10,10,8,4,,0.07,0,,258
2012-12-31,55,42,28,34,30,28,100,67,36,30.44,30.33,30.19,10,10,10,10,4,21,0.00,2,,220